Location: Newark
(40.3500°N, 15.2333°E)
Time: 20:34:20
(UTC+00:00)

Vanguard 1 - Pass Details

Date: 27 January 2020
Orbit: 650 x 3833 km, 34.2° (Epoch: 22 February)

Event Time Altitude Azimuth Distance (km) Brightness Sun altitude
Rises 18:15:04 0° 265° (W) 2,975 14.0 -23.7°
Reaches altitude 10° 18:17:16 10° 256° (WSW) 2,136 12.9 -24.1°
Maximum altitude 18:21:38 38° 188° (S) 1,244 10.6 -25.0°
Enters shadow 18:23:12 32° 154° (SSE) 1,496 10.7 -25.3°
Drops below altitude 10° 18:27:51 10° 122° (ESE) 3,057 - -26.1°
Sets 18:31:37 0° 116° (ESE) 4,478 - -26.9°
